[[{"header":{"parameterUnit":"m.s-1","parameterCategory":2,"la1":30.2991,"la2":30.254,"lo1":-89.0895,"lo2":-89.0444,"dy":0.0017,"dx":0.0017,"nx":28,"ny":28,"refTime":"2024-10-20T21:00:00:Z","depth":"0","parameterNumber":2,"parameterNumberName":"U-component_of_CURRENTS"},"data":[0,0,0,0,0,0,0,0,0,0,0,0,0,0,0,0,0,0,0,0,0,0,0,0,0,0,0,0,0,0,0,0,0,0,0,0,0,0,0,0,0,0,0,0,0,0,0,0,0,0,0,0,0,0,0,0,0,0,0.2917,0.2917,0,0.2897,0.2896,0.2896,0.2838,0.2837,0.2836,0.2836,0.2737,0.2735,0.2733,0,0,0,0,0,0,0,0,0,0,0,0,0,0.2926,0.2925,0.2917,0.2917,0.2918,0.2897,0.2896,0.2895,0.2838,0.2837,0.2836,0.2835,0.2738,0.2735,0.2733,0,0,0,0,0,0,0,0,0,0,0,0,0,0.2909,0.2925,0.2917,0.2891,0.2889,0.2897,0.2896,0.2895,0.2838,0.2837,0.2836,0.2835,0.2739,0.2736,0.2733,0.2734,0,0,0.2723,0.2722,0,0,0,0,0,0,0,0,0.291,0.2908,0.2895,0.2893,0.2891,0.2875,0.2864,0.284,0.2838,0.285,0.2836,0.2834,0.2781,0.2774,0.2764,0.2729,0.2725,0.2723,0.2721,0.272,0.2719,0,0,0,0,0,0,0,0.2911,0.2909,0.2902,0.2895,0.2893,0.2889,0.2884,0.2859,0.2815,0.2849,0.2846,0.2855,0.2778,0.2768,0.2762,0.2724,0.2723,0.2721,0.2719,0.2718,0.2702,0.2703,0,0,0,0,0,0,0.2927,0.291,0.2903,0.2902,0.2906,0.289,0.2884,0.2875,0.2817,0.2809,0.2856,0.2853,0.2773,0.2765,0.2758,0.2764,0.272,0.2717,0.2716,0.27,0.2702,0.2703,0,0,0,0,0,0,0.2927,0.2926,0.2904,0.2912,0.291,0.2891,0.2881,0.2876,0.2871,0.2824,0.2814,0.2858,0.2772,0.2762,0.274,0.2759,0.2716,0.2713,0.2699,0.2701,0.2703,0.2771,0,0,0,0,0,0,0.2927,0.2925,0.2925,0.2912,0.291,0.2921,0.2883,0.2876,0.2881,0.2876,0.2823,0.2812,0.2771,0.2745,0.2737,0.2755,0.2711,0.2697,0.27,0.2702,0.2767,0.2775,0.2782,0,0,0,0,0,0.2927,0.2926,0.2925,0.2925,0.2909,0.2922,0.292,0.2899,0.2882,0.2888,0.2848,0.2814,0.2756,0.2743,0.2734,0.2751,0.2696,0.2699,0.2702,0.2764,0.2774,0.2782,0,0,0,0,0,0,0.292,0.2921,0.2919,0.2915,0.2929,0.2915,0.2919,0.2912,0.2886,0.2874,0.2823,0.2811,0.2803,0.2772,0.276,0.2757,0.2724,0.2726,0.2775,0.2783,0.2791,0.2799,0.2708,0,0,0,0,0,0.2926,0.2927,0.2935,0.2935,0.2943,0.2936,0.2939,0.293,0.2911,0.2899,0.2866,0.2832,0.281,0.2792,0.2769,0.2761,0.2756,0.2771,0.2778,0.2785,0.2787,0.2806,0.2816,0.2714,0.2714,0.2714,0,0,0.2922,0.2926,0.2925,0.2936,0.2937,0.295,0.2932,0.2943,0.2948,0.2892,0.2879,0.2858,0.2816,0.2809,0.2803,0.2782,0.2814,0.2789,0.2794,0.2793,0.281,0.282,0.2829,0.2716,0.2715,0.2715,0,0,0.2922,0.2923,0.2928,0.2942,0.2962,0.2966,0.2977,0.2977,0.2969,0.2966,0.293,0.2924,0.2883,0.2864,0.2846,0.2885,0.2858,0.2881,0.2916,0.2935,0.2943,0.2951,0.2969,0.2977,0.2879,0.2879,0.2879,0,0.292,0.2921,0.2935,0.2948,0.2961,0.2977,0.299,0.2993,0.2985,0.2984,0.2969,0.294,0.291,0.2904,0.2917,0.2901,0.2907,0.2881,0.2945,0.2952,0.2958,0.2974,0.2983,0.2883,0.2882,0.2882,0.2881,0,0.2923,0.293,0.2938,0.2958,0.298,0.2995,0.3015,0.3027,0.3027,0.3027,0.3032,0.3005,0.2986,0.2986,0.2956,0.2989,0.2978,0.2958,0.2921,0.2973,0.2987,0.2994,0.2888,0.2886,0.2885,0.2884,0,0,0.2878,0.2931,0.2927,0.2938,0.2985,0.2993,0.3025,0.3049,0.3059,0.3066,0.3078,0.3064,0.3063,0.3045,0.3026,0.3042,0.3097,0.3022,0.3021,0.3038,0.3145,0.3107,0.3111,0.3088,0.309,0.3091,0.3141,0,0.287,0.2892,0.293,0.2949,0.2958,0.3001,0.3026,0.3052,0.3075,0.3093,0.3095,0.3098,0.3082,0.3079,0.3099,0.3097,0.3118,0.3086,0.3092,0.3092,0.3052,0.3119,0.2997,0.3028,0.3148,0.3149,0.315,0,0.2835,0.2861,0.2885,0.2932,0.2941,0.2965,0.3008,0.3037,0.3085,0.3105,0.3132,0.3136,0.3166,0.3143,0.3183,0.3164,0.3162,0.3163,0.3164,0.3107,0.3068,0.2994,0.3037,0.2966,0.316,0.316,0.3159,0,0.2757,0.2811,0.2829,0.2845,0.2914,0.2932,0.2971,0.3028,0.3057,0.3119,0.3146,0.3183,0.3202,0.322,0.3233,0.3211,0.3277,0.324,0.3207,0.3204,0.309,0.3074,0.306,0.327,0.327,0.327,0.327,0,0.2705,0.2707,0.2792,0.2792,0.2811,0.2883,0.2912,0.296,0.3041,0.3071,0.3143,0.3174,0.3224,0.3263,0.3262,0.3271,0.3304,0.323,0.322,0.3111,0.3098,0.302,0.299,0.3272,0.3271,0.3271,0.3271,0,0.2599,0.2656,0.267,0.2748,0.2769,0.2776,0.2869,0.2898,0.2992,0.3042,0.3066,0.318,0.324,0.3286,0.3327,0.3303,0.3221,0.3302,0.3176,0.315,0.3028,0.3006,0.2879,0.2786,0.3267,0.3267,0.3266,0,0.2546,0.2548,0.2614,0.2627,0.2662,0.27,0.2732,0.2844,0.2892,0.3028,0.3047,0.315,0.32,0.3282,0.3277,0.3293,0.3195,0.3171,0.31,0.3022,0.2991,0.2879,0.2802,0.2981,0.2978,0.2976,0.2974,0,0.2453,0.2481,0.2505,0.2531,0.2561,0.259,0.2653,0.2689,0.282,0.2873,0.2966,0.3029,0.3142,0.3126,0.3174,0.316,0.3016,0.3123,0.307,0.2796,0.2643,0.2549,0.2956,0.2954,0.2956,0.2958,0.2959,0.296,0.2384,0.2374,0.2414,0.2428,0.2455,0.2472,0.2464,0.255,0.2597,0.2665,0.2807,0.2849,0.2946,0.3007,0.2987,0.2892,0.2878,0.2788,0.2779,0.2683,0.2547,0.2919,0.2887,0.2889,0.289,0.2891,0.2893,0,0.2291,0.2299,0.2313,0.232,0.2305,0.2356,0.2397,0.2378,0.2381,0.2492,0.2547,0.261,0.2627,0.2694,0.2675,0.2566,0.2442,0.2492,0.2305,0.2255,0.2614,0.2556,0.2417,0.2417,0.2417,0.2417,0.2417,0.2417,0.2245,0.2219,0.2224,0.2166,0.2171,0.2106,0.2101,0.2091,0.2139,0.2154,0.2182,0.2268,0.245,0.2502,0.2412,0.2343,0.2148,0.2049,0.205,0.2319,0.2346,0.2371,0.2309,0.2121,0.212,0.1578,0.1574,0.1571]},{"header":{"parameterUnit":"m.s-1","parameterCategory":2,"la1":30.2991,"la2":30.254,"lo1":-89.0895,"lo2":-89.0444,"dy":0.0017,"dx":0.0017,"nx":28,"ny":28,"refTime":"2024-10-20T21:00:00:Z","depth":"0","parameterNumber":3,"parameterNumberName":"V-component_of_CURRENTS"},"data":[0,0,0,0,0,0,0,0,0,0,0,0,0,0,0,0,0,0,0,0,0,0,0,0,0,0,0,0,0,0,0,0,0,0,0,0,0,0,0,0,0,0,0,0,0,0,0,0,0,0,0,0,0,0,0,0,0,0,-0.0224,-0.0225,0,-0.0278,-0.0279,-0.0279,-0.0289,-0.0289,-0.0289,-0.0288,-0.0302,-0.0303,-0.0304,0,0,0,0,0,0,0,0,0,0,0,0,0,-0.0176,-0.0176,-0.0224,-0.0225,-0.0226,-0.0278,-0.0279,-0.028,-0.029,-0.0289,-0.0289,-0.0288,-0.0302,-0.0303,-0.0304,0,0,0,0,0,0,0,0,0,0,0,0,0,-0.0209,-0.0176,-0.0224,-0.0237,-0.0239,-0.0278,-0.0279,-0.028,-0.029,-0.0289,-0.0288,-0.0288,-0.0302,-0.0303,-0.0304,-0.0322,0,0,-0.0307,-0.0308,0,0,0,0,0,0,0,0,-0.0207,-0.0211,-0.0235,-0.0237,-0.0239,-0.0277,-0.0267,-0.0292,-0.029,-0.027,-0.0288,-0.0288,-0.0291,-0.0293,-0.0304,-0.0322,-0.0323,-0.0307,-0.0308,-0.0308,-0.0309,0,0,0,0,0,0,0,-0.0205,-0.0209,-0.0245,-0.0236,-0.0238,-0.0257,-0.026,-0.0272,-0.0282,-0.0271,-0.0272,-0.028,-0.0292,-0.0303,-0.0304,-0.0323,-0.0307,-0.0308,-0.0309,-0.0309,-0.0339,-0.0339,0,0,0,0,0,0,-0.0198,-0.0207,-0.0243,-0.0247,-0.0222,-0.0258,-0.0262,-0.0265,-0.0282,-0.0285,-0.028,-0.028,-0.0301,-0.0303,-0.0305,-0.03,-0.0308,-0.0309,-0.031,-0.0339,-0.0339,-0.0339,0,0,0,0,0,0,-0.0197,-0.0201,-0.0241,-0.0229,-0.0235,-0.0259,-0.0262,-0.0266,-0.0279,-0.029,-0.0291,-0.0289,-0.0301,-0.0303,-0.0303,-0.0301,-0.031,-0.0311,-0.0339,-0.0339,-0.0339,-0.0307,0,0,0,0,0,0,-0.0195,-0.02,-0.0202,-0.0228,-0.0236,-0.026,-0.0263,-0.0268,-0.0284,-0.0285,-0.0298,-0.0298,-0.0301,-0.0301,-0.0304,-0.0303,-0.0312,-0.0339,-0.0339,-0.0339,-0.0308,-0.0306,-0.0304,0,0,0,0,0,-0.0193,-0.0192,-0.0201,-0.0206,-0.0237,-0.026,-0.0266,-0.0281,-0.0285,-0.029,-0.029,-0.0298,-0.0305,-0.0302,-0.0305,-0.0304,-0.0339,-0.0339,-0.0339,-0.0308,-0.0306,-0.0304,0,0,0,0,0,0,-0.0167,-0.0194,-0.0204,-0.021,-0.0234,-0.0262,-0.0265,-0.0284,-0.0291,-0.0284,-0.0297,-0.0297,-0.0298,-0.0309,-0.0305,-0.0315,-0.0325,-0.0326,-0.0301,-0.0299,-0.0297,-0.0274,-0.0313,0,0,0,0,0,-0.0164,-0.0172,-0.0202,-0.0207,-0.0214,-0.0243,-0.0255,-0.0266,-0.0278,-0.0282,-0.0294,-0.0301,-0.0304,-0.0306,-0.0313,-0.0318,-0.0325,-0.0322,-0.0321,-0.0319,-0.0304,-0.0312,-0.0309,-0.0341,-0.0341,-0.0341,0,0,-0.0155,-0.0172,-0.0175,-0.0203,-0.0217,-0.022,-0.0248,-0.0259,-0.0259,-0.0281,-0.0279,-0.0296,-0.0305,-0.0305,-0.0307,-0.0311,-0.0316,-0.032,-0.0318,-0.0303,-0.0312,-0.0309,-0.0306,-0.0341,-0.0341,-0.0341,0,0,-0.0134,-0.0153,-0.0149,-0.0165,-0.0188,-0.0205,-0.0209,-0.0238,-0.0245,-0.0255,-0.0264,-0.0277,-0.0293,-0.0295,-0.0297,-0.0294,-0.0308,-0.0305,-0.0275,-0.0284,-0.0281,-0.0278,-0.029,-0.0289,-0.0303,-0.0303,-0.0303,0,-0.012,-0.0119,-0.0153,-0.015,-0.0153,-0.0194,-0.0183,-0.0201,-0.0228,-0.0224,-0.0245,-0.0265,-0.0284,-0.0271,-0.0272,-0.0289,-0.0295,-0.028,-0.028,-0.0277,-0.0275,-0.0288,-0.0287,-0.0302,-0.0302,-0.0302,-0.0302,0,-0.0095,-0.0094,-0.0089,-0.0097,-0.0109,-0.0106,-0.0132,-0.0142,-0.0163,-0.0179,-0.0184,-0.0217,-0.0225,-0.0244,-0.0257,-0.0251,-0.0262,-0.0277,-0.028,-0.027,-0.0285,-0.0284,-0.0299,-0.03,-0.03,-0.0301,0,0,-0.0048,-0.0068,-0.0062,-0.0052,-0.0076,-0.0077,-0.0076,-0.0081,-0.0062,-0.0109,-0.0091,-0.013,-0.0156,-0.0161,-0.0192,-0.0207,-0.0215,-0.0233,-0.0234,-0.0236,-0.0231,-0.0236,-0.0236,-0.0227,-0.0226,-0.0226,-0.025,0,-0.0009,0.0011,-0.0013,0.0016,0.003,-0.0002,0.0005,-0.0005,-0.0018,-0.0013,-0.0059,-0.0059,-0.0121,-0.0126,-0.0152,-0.0187,-0.021,-0.0206,-0.0248,-0.0249,-0.0247,-0.0234,-0.0204,-0.0222,-0.025,-0.0249,-0.0249,0,0.0039,0.0045,0.0076,0.0085,0.009,0.0097,0.0117,0.0118,0.0111,0.0097,0.0078,0.0043,0.0013,-0.0047,-0.0109,-0.0102,-0.0163,-0.0205,-0.0207,-0.0217,-0.0252,-0.0237,-0.0221,-0.0333,-0.0249,-0.0249,-0.0249,0,0.0108,0.0118,0.0147,0.0149,0.0144,0.0159,0.0162,0.0161,0.0186,0.0174,0.0188,0.0136,0.0125,0.0042,-0.0061,-0.008,-0.0127,-0.0166,-0.0231,-0.0232,-0.0216,-0.0217,-0.0302,-0.0214,-0.0214,-0.0214,-0.0213,0,0.0168,0.0196,0.0184,0.0203,0.0249,0.0225,0.0281,0.027,0.0288,0.0336,0.0254,0.0283,0.0148,0.0099,-0.0015,-0.011,-0.0096,-0.0214,-0.0233,-0.0206,-0.0206,-0.0311,-0.0391,-0.0214,-0.0214,-0.0214,-0.0214,0,0.0238,0.0228,0.0267,0.0274,0.0282,0.0319,0.0356,0.0403,0.0394,0.0456,0.0454,0.041,0.0346,0.0205,0.0085,-0.0033,-0.0203,-0.0183,-0.0145,-0.0159,-0.033,-0.0409,-0.0516,-0.0573,-0.0253,-0.0254,-0.0254,0,0.0271,0.0298,0.0326,0.0361,0.0367,0.0414,0.0456,0.0458,0.0518,0.0546,0.0594,0.0545,0.054,0.0354,0.0142,-0.0051,-0.0189,-0.017,-0.0211,-0.0324,-0.0427,-0.0488,-0.0533,-0.0184,-0.0184,-0.0184,-0.0183,0,0.0339,0.035,0.038,0.0449,0.0498,0.0554,0.0617,0.0679,0.0699,0.0754,0.0828,0.0828,0.0646,0.0484,0.0198,0.005,-0.0249,-0.017,-0.0291,-0.0379,-0.0445,-0.0513,-0.0194,-0.018,-0.018,-0.0181,-0.0181,-0.0181,0.0393,0.0428,0.0473,0.0541,0.0602,0.0688,0.0755,0.0839,0.0941,0.1029,0.1022,0.1047,0.0777,0.041,0.0191,-0.0196,-0.023,-0.0317,-0.0403,-0.0454,-0.0511,-0.0187,-0.0194,-0.0194,-0.0195,-0.0195,-0.0195,0,0.0454,0.0493,0.0564,0.064,0.0721,0.0737,0.0857,0.0936,0.1073,0.1163,0.1229,0.1127,0.08,0.0428,-0.0089,-0.037,-0.0487,-0.0535,-0.0617,-0.0653,-0.0356,-0.0354,-0.0389,-0.0389,-0.0389,-0.0389,-0.0389,-0.0389,0.0487,0.056,0.0589,0.0724,0.0787,0.0896,0.0969,0.1088,0.1181,0.1304,0.1332,0.1325,0.1051,0.0155,-0.0454,-0.0603,-0.0819,-0.0866,-0.0986,-0.0786,-0.0772,-0.0759,-0.0775,-0.0898,-0.0899,-0.1226,-0.123,-0.1232]}],[{"header":{"parameterUnit":"m.s-1","parameterCategory":2,"la1":30.2991,"la2":30.254,"lo1":-89.0895,"lo2":-89.0444,"dy":0.0017,"dx":0.0017,"nx":28,"ny":28,"refTime":"2024-10-20T21:00:00:Z","depth":"2","parameterNumber":2,"parameterNumberName":"U-component_of_CURRENTS"},"data":[0,0,0,0,0,0,0,0,0,0,0,0,0,0,0,0,0,0,0,0,0,0,0,0,0,0,0,0,0,0,0,0,0,0,0,0,0,0,0,0,0,0,0,0,0,0,0,0,0,0,0,0,0,0,0,0,0,0,0.246,0.2459,0,0.2443,0.2443,0.2443,0.2447,0.2447,0.2447,0.2447,0.2433,0.2433,0.2433,0,0,0,0,0,0,0,0,0,0,0,0,0,0.2472,0.2472,0.246,0.2459,0.2459,0.2443,0.2443,0.2443,0.2447,0.2447,0.2447,0.2447,0.2434,0.2433,0.2432,0,0,0,0,0,0,0,0,0,0,0,0,0,0.2464,0.2472,0.246,0.2457,0.2457,0.2443,0.2443,0.2443,0.2447,0.2447,0.2447,0.2447,0.2434,0.2433,0.2432,0.2424,0,0,0.243,0.243,0,0,0,0,0,0,0,0,0.2465,0.2464,0.2458,0.2458,0.2457,0.2445,0.2442,0.2436,0.2447,0.2453,0.2447,0.2447,0.2436,0.2435,0.2435,0.2423,0.2423,0.243,0.243,0.2429,0.2429,0,0,0,0,0,0,0,0.2465,0.2465,0.2455,0.2458,0.2457,0.2449,0.2449,0.2441,0.2445,0.2452,0.2452,0.2447,0.2436,0.2435,0.2434,0.2422,0.243,0.2429,0.2429,0.2429,0.2469,0.247,0,0,0,0,0,0,0.2464,0.2465,0.2456,0.2454,0.2459,0.2449,0.2448,0.245,0.2445,0.2444,0.2447,0.2447,0.2436,0.2435,0.2434,0.2478,0.2429,0.2429,0.2428,0.2467,0.2469,0.2471,0,0,0,0,0,0,0.2465,0.2464,0.2456,0.2457,0.2456,0.2448,0.2451,0.245,0.2465,0.244,0.244,0.2464,0.2437,0.2435,0.2449,0.2475,0.2428,0.2428,0.2465,0.2468,0.247,0.2531,0,0,0,0,0,0,0.2465,0.2464,0.248,0.2458,0.2455,0.2468,0.245,0.2449,0.246,0.2461,0.2455,0.2453,0.2437,0.245,0.2448,0.2473,0.2427,0.2463,0.2466,0.2469,0.2527,0.2535,0.2542,0,0,0,0,0,0.2466,0.248,0.2481,0.248,0.2472,0.2469,0.2469,0.2464,0.2461,0.2478,0.2473,0.2454,0.2467,0.2451,0.2448,0.2474,0.2462,0.2466,0.2469,0.2524,0.2533,0.2542,0,0,0,0,0,0,0.249,0.2481,0.2481,0.2492,0.2491,0.247,0.2479,0.2476,0.2486,0.249,0.2468,0.2466,0.2492,0.2475,0.2458,0.2495,0.2463,0.2466,0.2506,0.2515,0.2522,0.2526,0.2426,0,0,0,0,0,0.2502,0.2506,0.2502,0.2506,0.2512,0.2501,0.2502,0.2502,0.2498,0.2503,0.2501,0.2499,0.25,0.2502,0.2504,0.2518,0.2514,0.2535,0.2543,0.2549,0.2552,0.2574,0.2583,0.2482,0.2482,0.2482,0,0,0.2499,0.2502,0.2498,0.2511,0.2507,0.2519,0.2503,0.2513,0.2524,0.2499,0.2524,0.2527,0.2512,0.2534,0.2543,0.2524,0.2579,0.2553,0.2559,0.2558,0.2578,0.2588,0.2596,0.2484,0.2484,0.2483,0,0,0.2499,0.2512,0.2522,0.253,0.2541,0.2541,0.255,0.2554,0.2564,0.2582,0.2573,0.2595,0.2591,0.2595,0.2589,0.2638,0.2621,0.2643,0.2678,0.2699,0.2708,0.2715,0.2733,0.2741,0.2642,0.2643,0.2643,0,0.2503,0.2513,0.2524,0.2542,0.2546,0.2555,0.2569,0.2581,0.259,0.2603,0.26,0.2624,0.2618,0.2639,0.2661,0.2655,0.2663,0.2643,0.2709,0.2715,0.2722,0.2739,0.2747,0.2646,0.2646,0.2645,0.2645,0,0.2511,0.2525,0.253,0.2556,0.2574,0.2582,0.2602,0.2632,0.2645,0.2651,0.269,0.2692,0.2704,0.2713,0.2699,0.2746,0.2738,0.2718,0.2684,0.2736,0.275,0.2758,0.2651,0.265,0.2649,0.2648,0,0,0.2481,0.2529,0.2526,0.2541,0.2581,0.2588,0.263,0.2661,0.2684,0.2713,0.2742,0.2764,0.2777,0.2774,0.2774,0.2795,0.2853,0.2782,0.2781,0.2797,0.2906,0.2856,0.2859,0.2848,0.2849,0.285,0.2901,0,0.2477,0.2512,0.254,0.256,0.2576,0.2613,0.2643,0.2679,0.2713,0.2751,0.2773,0.2801,0.2794,0.2813,0.2836,0.2851,0.2875,0.2841,0.2856,0.2856,0.2803,0.2866,0.2639,0.2662,0.2908,0.291,0.2911,0,0.2463,0.2492,0.2518,0.2561,0.2572,0.2594,0.2651,0.2684,0.2748,0.2779,0.2826,0.2843,0.2894,0.2875,0.293,0.2911,0.2917,0.2923,0.2925,0.286,0.282,0.2648,0.2666,0.2923,0.2922,0.2921,0.292,0,0.2414,0.2464,0.2483,0.2496,0.2557,0.2582,0.2623,0.2689,0.2726,0.2809,0.2845,0.2899,0.2935,0.2958,0.2982,0.2963,0.3033,0.3001,0.2961,0.2957,0.2755,0.2731,0.3036,0.3036,0.3036,0.3036,0.3035,0,0.2379,0.2388,0.2462,0.2466,0.2493,0.2557,0.2596,0.2653,0.2739,0.2778,0.2855,0.2894,0.296,0.3002,0.3008,0.3017,0.3055,0.2982,0.2972,0.2772,0.275,0.2962,0.2953,0.3038,0.3037,0.3037,0.3036,0,0.2305,0.2351,0.2372,0.2444,0.2464,0.2485,0.2575,0.2612,0.2708,0.2769,0.2801,0.2912,0.2973,0.3023,0.3073,0.3047,0.306,0.3047,0.2813,0.2775,0.2962,0.2955,0.3008,0.3007,0.3006,0.3005,0.3005,0,0.227,0.2276,0.2338,0.2353,0.2383,0.2432,0.2467,0.2578,0.2625,0.2759,0.2779,0.2886,0.2928,0.3004,0.2993,0.3007,0.3051,0.2789,0.2709,0.2977,0.2962,0.2957,0.2952,0.2469,0.2464,0.2459,0.2456,0,0.2206,0.2228,0.225,0.228,0.2312,0.2346,0.241,0.244,0.2564,0.2617,0.2692,0.2747,0.2845,0.2768,0.2812,0.2781,0.2771,0.2706,0.3045,0.2517,0.2473,0.2457,0.2469,0.2419,0.2423,0.2426,0.2428,0.2429,0.2156,0.2151,0.2182,0.2199,0.2232,0.2244,0.2238,0.2308,0.2348,0.2402,0.2525,0.2525,0.2581,0.2534,0.2467,0.242,0.2609,0.2475,0.2485,0.25,0.2435,0.2393,0.2311,0.2314,0.2317,0.2319,0.2321,0,0.2088,0.2093,0.2105,0.2108,0.2098,0.2154,0.2182,0.2152,0.214,0.2217,0.2256,0.2098,0.2069,0.2121,0.2004,0.202,0.1973,0.1924,0.1834,0.1875,0.1909,0.181,0.1522,0.152,0.1517,0.1514,0,0,0.2055,0.2028,0.2024,0.1969,0.1978,0.1923,0.1916,0.1885,0.19,0.1853,0.1833,0.1982,0.2068,0.176,0.1737,0.1606,0.1719,0.1542,0.219,0.2125,0.2156,0.2246,0.2143,0,0,0,0,0]},{"header":{"parameterUnit":"m.s-1","parameterCategory":2,"la1":30.2991,"la2":30.254,"lo1":-89.0895,"lo2":-89.0444,"dy":0.0017,"dx":0.0017,"nx":28,"ny":28,"refTime":"2024-10-20T21:00:00:Z","depth":"2","parameterNumber":3,"parameterNumberName":"V-component_of_CURRENTS"},"data":[0,0,0,0,0,0,0,0,0,0,0,0,0,0,0,0,0,0,0,0,0,0,0,0,0,0,0,0,0,0,0,0,0,0,0,0,0,0,0,0,0,0,0,0,0,0,0,0,0,0,0,0,0,0,0,0,0,0,0.0185,0.0185,0,0.0144,0.0144,0.0143,0.0097,0.0097,0.0096,0.0096,0.0037,0.0035,0.0034,0,0,0,0,0,0,0,0,0,0,0,0,0,0.0206,0.0206,0.0185,0.0185,0.0184,0.0145,0.0144,0.0143,0.0097,0.0097,0.0096,0.0096,0.0037,0.0035,0.0034,0,0,0,0,0,0,0,0,0,0,0,0,0,0.0181,0.0206,0.0185,0.016,0.0158,0.0145,0.0143,0.0142,0.0097,0.0097,0.0096,0.0096,0.0037,0.0036,0.0034,0.003,0,0,0.0028,0.0027,0,0,0,0,0,0,0,0,0.0182,0.0179,0.0164,0.0162,0.0159,0.0129,0.013,0.0105,0.0097,0.0115,0.0096,0.0096,0.0069,0.0064,0.0052,0.0027,0.0024,0.0027,0.0026,0.0025,0.0025,0,0,0,0,0,0,0,0.0184,0.0181,0.0164,0.0164,0.0161,0.0146,0.0142,0.0124,0.0091,0.0114,0.0112,0.0114,0.0067,0.0054,0.005,0.0023,0.0027,0.0026,0.0024,0.0024,-0.002,-0.002,0,0,0,0,0,0,0.0199,0.0182,0.0166,0.0163,0.0175,0.0146,0.0141,0.0136,0.0092,0.0086,0.0115,0.0112,0.0057,0.0052,0.0048,0.0038,0.0025,0.0023,0.0022,-0.002,-0.002,-0.002,0,0,0,0,0,0,0.0199,0.0198,0.0167,0.0176,0.0172,0.0147,0.0141,0.0135,0.0119,0.0093,0.0086,0.0105,0.0057,0.0051,0.0035,0.0036,0.0023,0.0021,-0.002,-0.002,-0.002,0.0021,0,0,0,0,0,0,0.02,0.0198,0.0192,0.0177,0.0172,0.0162,0.0142,0.0135,0.0124,0.012,0.0083,0.0077,0.0056,0.0038,0.0033,0.0033,0.0019,-0.002,-0.002,-0.002,0.002,0.0022,0.0025,0,0,0,0,0,0.0201,0.0201,0.0191,0.0189,0.0166,0.0163,0.0158,0.0136,0.0124,0.0119,0.0096,0.0078,0.0034,0.0037,0.003,0.003,-0.002,-0.002,-0.002,0.0018,0.0022,0.0025,0,0,0,0,0,0,0.021,0.0197,0.0185,0.0181,0.0174,0.0157,0.0153,0.0138,0.0115,0.0111,0.0081,0.0074,0.0058,0.004,0.0043,0.0017,0.0003,0.0002,0.0034,0.0037,0.004,0.0055,0.0018,0,0,0,0,0,0.021,0.0208,0.0193,0.0194,0.0189,0.017,0.0164,0.0151,0.0135,0.0123,0.0096,0.0071,0.0054,0.0043,0.0022,0.0012,-0.0006,0.0006,0.0009,0.0011,0.0019,-0.0004,-0.0002,-0.0019,-0.0019,-0.0019,0,0,0.0221,0.0211,0.0212,0.0196,0.0187,0.0189,0.0164,0.0161,0.0163,0.0122,0.0108,0.0079,0.0054,0.004,0.0031,0.0025,0.0005,0.0011,0.0014,0.002,-0.0003,-0.0002,-0.0,-0.0019,-0.0019,-0.0019,0,0,0.0244,0.0226,0.023,0.0225,0.0215,0.0205,0.0206,0.0184,0.017,0.0158,0.0129,0.0104,0.0074,0.0055,0.0044,0.0049,0.002,0.0038,0.0064,0.0042,0.0043,0.0044,0.002,0.0019,0.0039,0.0039,0.0039,0,0.0254,0.0257,0.0234,0.0237,0.0242,0.0215,0.0228,0.0213,0.0188,0.0182,0.016,0.0112,0.0083,0.0075,0.0072,0.0056,0.0037,0.0055,0.0046,0.0047,0.0047,0.0022,0.002,0.0041,0.0041,0.0041,0.0041,0,0.0281,0.0283,0.029,0.0285,0.0283,0.0294,0.0276,0.0263,0.0241,0.0226,0.0203,0.0158,0.0132,0.0114,0.0094,0.0083,0.0066,0.0053,0.0041,0.0051,0.0024,0.0021,0.0044,0.0043,0.0043,0.0042,0,0,0.031,0.0308,0.0312,0.0322,0.0312,0.0318,0.0318,0.0314,0.0323,0.0275,0.0277,0.0228,0.0196,0.0181,0.0144,0.0118,0.0096,0.0088,0.0086,0.007,0.0045,0.0034,0.003,0.008,0.008,0.008,0.0024,0,0.0341,0.0364,0.0353,0.0385,0.0397,0.0377,0.0385,0.0375,0.0358,0.0349,0.0295,0.028,0.0226,0.0211,0.0176,0.0122,0.0091,0.0113,0.0033,0.0031,0.0024,0.0027,0.005,0.0003,0.0021,0.0021,0.002,0,0.0372,0.0384,0.0417,0.0438,0.0442,0.0454,0.0467,0.0473,0.0452,0.0435,0.0401,0.0359,0.0312,0.0264,0.0173,0.0189,0.0121,0.0071,0.0068,0.0044,0.0015,-0.0005,-0.0004,0.0015,0.0016,0.0016,0.0016,0,0.0411,0.0433,0.0464,0.0471,0.0484,0.0494,0.0502,0.0497,0.0518,0.0491,0.0495,0.0427,0.0401,0.0307,0.0195,0.0184,0.0095,0.0068,-0.0008,-0.001,-0.0012,-0.0013,0.0002,0.0002,0.0002,0.0003,0.0003,0,0.0451,0.0476,0.0484,0.0503,0.0545,0.0537,0.0584,0.0576,0.0587,0.0623,0.0544,0.0552,0.0411,0.0339,0.0224,0.0105,0.0115,0.0,-0.0022,0.0002,0.0002,-0.0003,-0.0003,0.0001,0.0001,0.0001,0.0002,0,0.0487,0.0492,0.0532,0.0554,0.0565,0.0596,0.0644,0.0682,0.0675,0.0717,0.071,0.0651,0.0559,0.0412,0.0267,0.0156,0.0034,-0.0014,0.0021,0.0004,-0.0066,-0.0063,-0.0103,-0.0104,-0.0105,-0.0105,-0.0106,0,0.0505,0.0529,0.0573,0.0606,0.0617,0.0664,0.0705,0.0722,0.0773,0.0785,0.0815,0.0738,0.0701,0.0481,0.0274,0.0072,0.0039,-0.0047,-0.0067,-0.0058,-0.0076,-0.0072,-0.0068,-0.0059,-0.0059,-0.0059,-0.0059,0,0.0545,0.0561,0.0595,0.0662,0.0711,0.0774,0.0834,0.0886,0.0915,0.0948,0.098,0.095,0.0744,0.0552,0.027,0.0132,-0.0015,-0.0054,-0.005,-0.0032,-0.002,-0.0037,-0.0034,-0.006,-0.006,-0.006,-0.006,-0.006,0.0576,0.0608,0.0659,0.0723,0.0784,0.0868,0.093,0.1002,0.1083,0.113,0.1107,0.1061,0.084,0.0488,0.0246,-0.0016,-0.0005,-0.0101,-0.01,-0.0098,-0.008,-0.0069,-0.0114,-0.0115,-0.0115,-0.0115,-0.0115,0,0.0611,0.0651,0.0716,0.0794,0.0869,0.0895,0.1007,0.107,0.1166,0.1202,0.1221,0.1012,0.0797,0.053,0.015,-0.0072,-0.0092,-0.0149,-0.0121,-0.0119,-0.0117,-0.0099,-0.0139,-0.014,-0.0141,-0.0142,0,0,0.0631,0.0694,0.0727,0.0847,0.0907,0.101,0.1076,0.1161,0.1212,0.1247,0.1221,0.1179,0.0869,0.0592,0.0292,0.0072,0.0022,0.0025,0.007,0.014,0.0144,-0.0062,-0.0027,0,0,0,0,0]}],[{"header":{"parameterUnit":"m.s-1","parameterCategory":2,"la1":30.2991,"la2":30.254,"lo1":-89.0895,"lo2":-89.0444,"dy":0.0017,"dx":0.0017,"nx":28,"ny":28,"refTime":"2024-10-20T21:00:00:Z","depth":"4","parameterNumber":2,"parameterNumberName":"U-component_of_CURRENTS"},"data":[0,0,0,0,0,0,0,0,0,0,0,0,0,0,0,0,0,0,0,0,0,0,0,0,0,0,0,0,0,0,0,0,0,0,0,0,0,0,0,0,0,0,0,0,0,0,0,0,0,0,0,0,0,0,0,0,0,0,0.1427,0.1428,0,0.1471,0.1471,0.1472,0.1519,0.152,0.1521,0.1522,0.1598,0.16,0.1601,0,0,0,0,0,0,0,0,0,0,0,0,0,0.1363,0.1364,0.1427,0.1428,0.1429,0.1471,0.1471,0.1472,0.1519,0.152,0.1521,0.1522,0.1598,0.1599,0.1601,0,0,0,0,0,0,0,0,0,0,0,0,0,0.1396,0.1365,0.1427,0.1458,0.1462,0.1471,0.1472,0.1472,0.1519,0.152,0.1522,0.1523,0.1597,0.1599,0.1601,0.1588,0,0,0.1607,0.1608,0,0,0,0,0,0,0,0,0.1394,0.1398,0.1453,0.1456,0.146,0.1492,0.1477,0.1513,0.1519,0.1496,0.1522,0.1523,0.1566,0.1571,0.1574,0.1592,0.1595,0.1607,0.1608,0.1609,0.161,0,0,0,0,0,0,0,0.1392,0.1397,0.1443,0.1454,0.1458,0.1463,0.1469,0.1484,0.1523,0.1498,0.1502,0.1509,0.1568,0.1571,0.1576,0.1596,0.1607,0.1609,0.161,0.1611,0.1721,0.1723,0,0,0,0,0,0,0.1389,0.1394,0.1442,0.1445,0.1431,0.1464,0.147,0.148,0.1522,0.153,0.1508,0.1511,0.1568,0.1574,0.1579,0.1663,0.1609,0.1611,0.1612,0.172,0.1722,0.1724,0,0,0,0,0,0,0.1388,0.1393,0.144,0.1421,0.1428,0.1464,0.1474,0.148,0.1515,0.1529,0.1538,0.1541,0.1569,0.1576,0.1629,0.1663,0.1612,0.1614,0.1717,0.172,0.1723,0.1771,0,0,0,0,0,0,0.1386,0.1392,0.1415,0.1421,0.1429,0.1467,0.1473,0.148,0.1516,0.1522,0.156,0.1566,0.157,0.1627,0.1631,0.1665,0.1615,0.1715,0.1719,0.1722,0.1767,0.1775,0.1781,0,0,0,0,0,0.1383,0.1402,0.1416,0.1423,0.1454,0.1468,0.1473,0.15,0.1517,0.1537,0.1572,0.1567,0.1651,0.163,0.1635,0.167,0.1713,0.1718,0.1722,0.1763,0.1773,0.1781,0,0,0,0,0,0,0.1393,0.1409,0.1424,0.1451,0.147,0.1478,0.1503,0.1516,0.1556,0.1576,0.1587,0.1596,0.1657,0.1657,0.1633,0.1713,0.1683,0.1688,0.1713,0.1722,0.1729,0.1728,0.1617,0,0,0,0,0,0.1403,0.1421,0.1437,0.1462,0.1475,0.1494,0.1511,0.1529,0.1556,0.1576,0.1603,0.1637,0.167,0.1693,0.1719,0.1758,0.1762,0.1786,0.1793,0.1799,0.1803,0.1844,0.1855,0.1737,0.1737,0.1737,0,0,0.1414,0.1426,0.1439,0.1465,0.1484,0.1504,0.1508,0.1543,0.1569,0.1577,0.1637,0.1666,0.1688,0.1739,0.1765,0.1747,0.1836,0.1804,0.1809,0.181,0.1849,0.186,0.187,0.174,0.1739,0.1739,0,0,0.1428,0.1457,0.1474,0.1492,0.1526,0.1535,0.1551,0.158,0.161,0.1659,0.168,0.1732,0.1775,0.1801,0.1816,0.1878,0.1875,0.1893,0.1927,0.1966,0.1976,0.1985,0.2006,0.2016,0.1894,0.1894,0.1894,0,0.1446,0.1465,0.1483,0.1503,0.1523,0.155,0.1574,0.1602,0.1649,0.168,0.169,0.1782,0.1802,0.1863,0.189,0.1894,0.1912,0.1889,0.1975,0.1984,0.1992,0.2011,0.2021,0.1897,0.1896,0.1896,0.1896,0,0.1458,0.149,0.1504,0.1535,0.1559,0.1586,0.162,0.1663,0.1702,0.1731,0.1814,0.1849,0.1902,0.192,0.1925,0.1998,0.1991,0.198,0.1949,0.2006,0.2023,0.2033,0.1901,0.19,0.1899,0.1898,0,0,0.1457,0.1503,0.1514,0.1533,0.1581,0.1596,0.1654,0.1704,0.1752,0.181,0.1874,0.1939,0.197,0.1991,0.2012,0.2047,0.2119,0.2044,0.2045,0.2057,0.2204,0.2058,0.2055,0.2129,0.2132,0.2133,0.2193,0,0.1467,0.1499,0.1526,0.1569,0.1587,0.1636,0.1682,0.1739,0.1796,0.1866,0.1923,0.1995,0.1992,0.2038,0.2073,0.2116,0.2148,0.2103,0.2153,0.2154,0.2011,0.2062,0.214,0.22,0.2203,0.2204,0.2205,0,0.1467,0.1489,0.1528,0.1583,0.16,0.1637,0.1719,0.1767,0.1866,0.192,0.1999,0.2047,0.2129,0.2114,0.2203,0.218,0.2199,0.2217,0.2219,0.2071,0.2026,0.2133,0.2223,0.2222,0.222,0.2219,0.2218,0,0.1432,0.1491,0.152,0.1539,0.1606,0.165,0.1698,0.1792,0.1845,0.1969,0.2025,0.2118,0.2183,0.2227,0.2268,0.2253,0.2349,0.2326,0.2207,0.2197,0.2289,0.2279,0.2381,0.2381,0.2381,0.2381,0.2381,0,0.1409,0.144,0.1513,0.1526,0.158,0.164,0.1716,0.1784,0.1891,0.1955,0.2056,0.2114,0.2219,0.228,0.2298,0.2279,0.2374,0.2219,0.2205,0.2308,0.23,0.2296,0.2285,0.2383,0.2383,0.2382,0.2382,0,0.136,0.1407,0.1447,0.153,0.1562,0.1605,0.1714,0.1765,0.1879,0.1969,0.2016,0.2143,0.2216,0.2287,0.2367,0.2302,0.231,0.2278,0.2388,0.2379,0.2124,0.2115,0.2146,0.2141,0.2137,0.2134,0.2131,0,0.133,0.1347,0.144,0.1469,0.1514,0.1588,0.1638,0.1753,0.1804,0.1961,0.199,0.2114,0.218,0.2167,0.2253,0.2271,0.2245,0.2229,0.2166,0.2117,0.2102,0.21,0.2096,0.2125,0.2124,0.2123,0.2122,0,0.1278,0.1329,0.1362,0.1421,0.1477,0.1525,0.1605,0.1625,0.1754,0.1876,0.1916,0.1955,0.2029,0.2075,0.2108,0.2116,0.2228,0.2188,0.2195,0.2135,0.2092,0.2081,0.2082,0.2108,0.211,0.2112,0.2112,0,0.1251,0.1262,0.1316,0.1355,0.1422,0.1437,0.1486,0.1533,0.1589,0.1752,0.1763,0.1886,0.2006,0.1996,0.2027,0.2024,0.1989,0.1916,0.1937,0.1953,0.1862,0.1777,0.1689,0,0,0,0,0,0.1213,0.1211,0.1243,0.1268,0.1329,0.1366,0.1452,0.1502,0.1622,0.1604,0.1674,0.173,0.177,0.1835,0.1794,0.1949,0.2003,0.1892,0.1931,0.2033,0.2049,0.1959,0,0,0,0,0,0,0.1185,0.1214,0.121,0.1188,0.1194,0.1241,0.1292,0.1371,0.136,0.1492,0.1521,0.1626,0.1693,0.1779,0.1763,0.1783,0.177,0.1972,0.1968,0.2024,0.2039,0.2051,0.1964,0,0,0,0,0]},{"header":{"parameterUnit":"m.s-1","parameterCategory":2,"la1":30.2991,"la2":30.254,"lo1":-89.0895,"lo2":-89.0444,"dy":0.0017,"dx":0.0017,"nx":28,"ny":28,"refTime":"2024-10-20T21:00:00:Z","depth":"4","parameterNumber":3,"parameterNumberName":"V-component_of_CURRENTS"},"data":[0,0,0,0,0,0,0,0,0,0,0,0,0,0,0,0,0,0,0,0,0,0,0,0,0,0,0,0,0,0,0,0,0,0,0,0,0,0,0,0,0,0,0,0,0,0,0,0,0,0,0,0,0,0,0,0,0,0,0.0282,0.0282,0,0.0261,0.0261,0.0261,0.0241,0.024,0.024,0.024,0.0197,0.0196,0.0195,0,0,0,0,0,0,0,0,0,0,0,0,0,0.0288,0.0288,0.0282,0.0282,0.0282,0.0261,0.0261,0.0261,0.0241,0.024,0.024,0.024,0.0197,0.0196,0.0195,0,0,0,0,0,0,0,0,0,0,0,0,0,0.0277,0.0288,0.0282,0.027,0.0269,0.0262,0.0261,0.026,0.0241,0.024,0.024,0.024,0.0198,0.0196,0.0194,0.0188,0,0,0.019,0.0189,0,0,0,0,0,0,0,0,0.0278,0.0276,0.0272,0.0271,0.027,0.0255,0.0247,0.0236,0.0241,0.025,0.024,0.024,0.0215,0.0212,0.0207,0.0186,0.0184,0.019,0.0189,0.0188,0.0187,0,0,0,0,0,0,0,0.0278,0.0277,0.0272,0.0272,0.0271,0.0261,0.0259,0.0245,0.0232,0.0249,0.0248,0.0248,0.0214,0.0208,0.0206,0.0184,0.019,0.0188,0.0187,0.0187,0.0161,0.0161,0,0,0,0,0,0,0.0285,0.0278,0.0273,0.0272,0.0275,0.0261,0.0259,0.0258,0.0233,0.0229,0.0248,0.0247,0.0211,0.0207,0.0204,0.0206,0.0188,0.0186,0.0186,0.0161,0.0161,0.0161,0,0,0,0,0,0,0.0285,0.0285,0.0274,0.0276,0.0274,0.0262,0.0261,0.0258,0.0257,0.0233,0.0228,0.0251,0.0211,0.0206,0.0198,0.0204,0.0186,0.0184,0.0161,0.0161,0.0161,0.0203,0,0,0,0,0,0,0.0286,0.0285,0.0289,0.0276,0.0274,0.0276,0.0261,0.0258,0.0258,0.0257,0.0233,0.0229,0.021,0.0201,0.0197,0.0201,0.0183,0.016,0.0161,0.0161,0.0201,0.0204,0.0207,0,0,0,0,0,0.0286,0.0294,0.0289,0.0289,0.0279,0.0277,0.0275,0.0264,0.0258,0.0262,0.0246,0.023,0.0201,0.02,0.0195,0.0199,0.016,0.0161,0.0161,0.02,0.0204,0.0207,0,0,0,0,0,0,0.03,0.0293,0.0287,0.0292,0.0288,0.0274,0.0277,0.027,0.026,0.026,0.0234,0.0229,0.0223,0.0206,0.0206,0.0193,0.0177,0.0177,0.0208,0.0212,0.0215,0.0221,0.0182,0,0,0,0,0,0.0305,0.0309,0.0299,0.0305,0.0303,0.0291,0.029,0.0284,0.0274,0.027,0.0254,0.0236,0.0221,0.0214,0.0198,0.0193,0.0168,0.0192,0.0195,0.0198,0.02,0.0169,0.017,0.0163,0.0163,0.0163,0,0,0.0313,0.031,0.0311,0.0308,0.0302,0.0308,0.029,0.0293,0.0298,0.0266,0.0267,0.0248,0.0222,0.0216,0.0212,0.0203,0.0186,0.0198,0.0201,0.0201,0.017,0.017,0.0171,0.0164,0.0164,0.0164,0,0,0.033,0.0326,0.0334,0.0333,0.0331,0.0325,0.0329,0.0319,0.0315,0.0313,0.0291,0.0277,0.0256,0.0239,0.0227,0.0239,0.0205,0.0233,0.0254,0.0225,0.0225,0.0225,0.0194,0.0191,0.0234,0.0234,0.0234,0,0.034,0.0348,0.0337,0.0346,0.0351,0.0336,0.0349,0.0342,0.0333,0.033,0.032,0.0287,0.0267,0.0253,0.0257,0.0246,0.0223,0.0243,0.0229,0.0229,0.0228,0.0196,0.0192,0.0236,0.0236,0.0236,0.0236,0,0.0361,0.0371,0.0377,0.0382,0.0386,0.0396,0.0388,0.0389,0.0381,0.0371,0.0358,0.0327,0.0307,0.0297,0.0281,0.0267,0.025,0.0238,0.022,0.0231,0.0197,0.0192,0.0239,0.0239,0.0238,0.0238,0,0,0.0374,0.0389,0.0392,0.0405,0.0408,0.0416,0.0423,0.0425,0.0431,0.041,0.0409,0.0378,0.0358,0.0343,0.0316,0.0289,0.0263,0.0264,0.0262,0.0236,0.0195,0.0181,0.0174,0.0247,0.0247,0.0246,0.0173,0,0.0394,0.0422,0.0424,0.0454,0.0468,0.0462,0.0472,0.0471,0.0463,0.0457,0.0418,0.0408,0.0376,0.0367,0.0335,0.0284,0.0252,0.0283,0.0187,0.0184,0.0172,0.0169,0.0244,0.017,0.0168,0.0167,0.0167,0,0.0412,0.043,0.0464,0.0492,0.0497,0.0514,0.0529,0.0538,0.0524,0.0515,0.0491,0.0459,0.042,0.0391,0.0301,0.0323,0.0263,0.0218,0.0214,0.0183,0.0161,0.0156,0.0157,0.0158,0.0159,0.0159,0.016,0,0.0426,0.0459,0.049,0.0499,0.0525,0.054,0.0556,0.0556,0.0572,0.0554,0.0556,0.0498,0.0475,0.0393,0.03,0.0299,0.0196,0.0182,0.011,0.0108,0.0124,0.0125,0.0114,0.0114,0.0114,0.0115,0.0115,0,0.0443,0.0469,0.0502,0.0519,0.0559,0.0568,0.0608,0.061,0.062,0.064,0.0591,0.0582,0.0474,0.0403,0.031,0.0197,0.0201,0.0111,0.0088,0.0143,0.0147,0.012,0.0122,0.0112,0.0112,0.0113,0.0113,0,0.0449,0.047,0.0511,0.0551,0.0568,0.0598,0.0654,0.0681,0.0684,0.0706,0.0703,0.0646,0.0551,0.0435,0.03,0.0217,0.0106,0.0063,0.0131,0.0113,0.0033,0.0037,-0.0027,-0.0028,-0.0029,-0.003,-0.0031,0,0.0453,0.0475,0.0537,0.0569,0.0591,0.0642,0.0679,0.0709,0.074,0.0743,0.0751,0.0675,0.0618,0.042,0.0294,0.0109,0.0081,0.0018,0.0021,0.0034,0.0018,0.0024,0.003,-0.0032,-0.0032,-0.0033,-0.0033,0,0.0463,0.0488,0.0524,0.0591,0.0641,0.0698,0.0753,0.0779,0.0809,0.0815,0.0784,0.0682,0.0573,0.0419,0.0276,0.0144,0.0056,0.0007,0.0008,0.0011,0.0027,0.0013,0.002,-0.0036,-0.0036,-0.0035,-0.0035,0,0.0472,0.0497,0.055,0.0607,0.0672,0.073,0.0762,0.0796,0.0825,0.0825,0.0813,0.0697,0.0634,0.0437,0.0307,0.0174,0.0136,0.0085,0.0081,0.0083,0.0135,0.0173,0.0133,0,0,0,0,0,0.0477,0.0507,0.0563,0.0626,0.0693,0.0733,0.08,0.0828,0.0855,0.0837,0.0826,0.0724,0.0529,0.0452,0.0315,0.028,0.0108,0.0113,0.0046,-0.0054,-0.005,-0.001,0,0,0,0,0,0,0.048,0.0531,0.0558,0.0632,0.0678,0.0754,0.0798,0.082,0.0812,0.0817,0.0721,0.0678,0.0495,0.0606,0.0309,0.027,0.0205,0.0029,0.0026,-0.0056,-0.0053,-0.005,-0.0007,0,0,0,0,0]}]]